This is the latest recevied weather packets stored in our database for station/object NK7E-1. If no packets are shown the sender has not sent any weather packets the latest 10 day(s).
| Time | Temp. | Humidity | Pressure | Rain* | Wind** | Luminosity | Snow |
|---|---|---|---|---|---|---|---|
| 1778013001 | 23.33° C | 32% | 1011.9 hPa | 0 mm | - | - | - |
| 1778012400 | 23.33° C | 31% | 1011.9 hPa | 0 mm | - | - | - |
| 1778011801 | 23.33° C | 32% | 1012.1 hPa | 0 mm | - | - | - |
| 1778011203 | 23.33° C | 34% | 1012 hPa | 0 mm | - | - | - |
| 1778010600 | 22.78° C | 36% | 1012.1 hPa | 0 mm | - | - | - |
| 1778010001 | 23.33° C | 37% | 1012.2 hPa | 0 mm | - | - | - |
| 1778009401 | 22.78° C | 39% | 1012.3 hPa | 0 mm | - | - | - |
| 1778008802 | 23.33° C | 41% | 1012.2 hPa | 0 mm | - | - | - |
| 1778008200 | 23.33° C | 43% | 1012.5 hPa | 0 mm | - | - | - |
| 1778007601 | 22.78° C | 42% | 1012.6 hPa | 0 mm | - | - | - |
| 1778007000 | 22.22° C | 45% | 1012.6 hPa | 0 mm | - | - | - |
| 1778006401 | 21.11° C | 50% | 1012.9 hPa | 0 mm | - | - | - |
| 1778005800 | 21.11° C | 52% | 1013.1 hPa | 0 mm | - | - | - |
| 1778005200 | 21.11° C | 52% | 1013.1 hPa | 0 mm | - | - | - |
| 1778004600 | 20° C | 55% | 1013.3 hPa | 0 mm | - | - | - |
| 1778004002 | 19.44° C | 57% | 1013.4 hPa | 0 mm | - | - | - |
| 1778003401 | 19.44° C | 56% | 1013.6 hPa | 0 mm | - | - | - |
| 1778002800 | 19.44° C | 58% | 1013.6 hPa | 0 mm | - | - | - |
| 1778002201 | 18.89° C | 58% | 1013.7 hPa | 0 mm | - | - | - |
| 1778001601 | 19.44° C | 58% | 1013.7 hPa | 0 mm | - | - | - |
| 1778001001 | 19.44° C | 57% | 1013.7 hPa | 0 mm | - | - | - |
| 1778000402 | 18.89° C | 59% | 1013.7 hPa | 0 mm | - | - | - |
| 1777999800 | 18.89° C | 61% | 1013.6 hPa | 0 mm | - | - | - |
| 1777999201 | 18.33° C | 61% | 1013.6 hPa | 0 mm | - | - | - |
| 1777998601 | 17.78° C | 63% | 1013.6 hPa | 0 mm | - | - | - |
* Rain latest hour (hover to see other rain measurements)
** Current wind speed in m/s (hover to see current wind gust speed)